Regional Weather Roundup
Issued by NWS Cleveland, OH

Home | Current Version | Previous Version | Text Only | Print | Product List | Glossary On
Versions: 1 2 3 4 5 6 7 8 9 10 11 12 13 14 15 16 17 18 19 20 21 22 23 24 25 26 27 28 29 30 31 32 33 34 35 36 37 38 39 40 41 42 43 44 45 46 47 48 49 50
000
ASUS41 KCLE 201910
RWRCLE
OHIO REGIONAL WEATHER ROUNDUP
NATIONAL WEATHER SERVICE WILMINGTON, OH
200 PM EST SAT DEC 20 2014

NOTE: "FAIR" INDICATES FEW OR NO CLOUDS BELOW 12,000 FEET WITH NO
SIGNIFICANT WEATHER AND/OR OBSTRUCTIONS TO VISIBILITY.

OHZ001>008-015>018-024>027-034-035-043-044-202000-
   NORTHWEST OHIO

CITY           SKY/WX    TMP DP  RH WIND       PRES   REMARKS
DEFIANCE       NOT AVBL
FINDLAY        CLOUDY    31  22  69 S3        30.24F
TOLEDO EXPRESS CLOUDY    30  21  69 CALM      30.26F
TOLEDO METCALF CLOUDY    32  21  64 S5        30.28S WCI  27
LIMA           CLOUDY    32  23  69 SW3       30.24F HAZE
$$

OHZ009>014-019>023-028>033-038-089-202000-
   NORTHEAST OHIO

CITY           SKY/WX    TMP DP  RH WIND       PRES   REMARKS
CLE-HOPKINS    CLOUDY    31  21  66 CALM      30.28F
CLE-LAKEFRONT  CLOUDY    32  21  64 W6        30.26F WCI  26
CUY CO. ARPT   NOT AVBL
LORAIN-ELYRIA  CLOUDY    30  21  69 W3        30.26F
ASHTABULA      CLOUDY    31  21  66 CALM      30.25F
AKRON-CANTON   CLOUDY    30  18  60 CALM      30.23F
WOOSTER        CLOUDY    29  20  69 NE3       30.24F
MANSFIELD      CLOUDY    28  23  81 CALM      30.23S HAZE
YOUNGSTOWN     CLOUDY    30  20  66 CALM      30.23S
$$

OHZ042-051>053-060>062-070>072-077>081-202000-
  SOUTHWEST OHIO

CITY           SKY/WX    TMP DP  RH WIND       PRES   REMARKS
CINC-COVINGTON CLOUDY    32  24  72 N3        30.25S
CINC-LUNKEN    CLOUDY    33  25  72 NE3       30.28F
HAMILTON       CLOUDY    32  25  75 CALM      30.28F
DAYTON         CLOUDY    31  23  72 W3        30.25F
WRIGHT-PAT AFB CLOUDY    31  23  73 NW2       30.25F
DAYTON GENERAL CLOUDY    31  23  72 CALM      30.24F
WILMINGTON     CLOUDY    30  22  72 CALM      30.24F
$$

OHZ036-037-039>041-045>050-054>059-063>069-073>076-082>088-202000-
  CENTRAL AND SOUTHEAST OHIO

CITY           SKY/WX    TMP DP  RH WIND       PRES   REMARKS
COLUMBUS       CLOUDY    30  22  72 CALM      30.25F
OSU AIRPORT    CLOUDY    31  23  72 N3        30.25S
BOLTON FIELD   CLOUDY    30  25  80 CALM      30.25F
RICKENBACK AFB CLOUDY    31  24  75 CALM      30.25F
NEWARK         CLOUDY    32  23  69 CALM      30.24F
MARION         CLOUDY    29  23  78 CALM      30.24F HAZE
LANCASTER      CLOUDY    35  25  66 N3        30.25F
ZANESVILLE     CLOUDY    30  21  69 CALM      30.24F
NEW PHILLY     CLOUDY    31  19  61 CALM      30.25F
$$



USA.gov is the U.S. government's official web portal to all federal, state and local government web resources and services.